Vorticity
5 4 3 4 4 7 13 19 14 6 2 8 10 10 19 35 61 21 23 19 7 20 17 24 -4 6 32 21 16 18 13 15 10 17 18 8 6 8 4 16 23 8 23
7 6 7 10 13 17 12 6 4 10 19 37 53 58 49 53 14 29 -10 5 5 -19 19 16 30 22 23 26 45 27 21 8 22 28 13 18 20 13 14 27 0 12 2
7 10 10 13 10 3 6 19 41 42 46 37 16 -2 19 8 16 25 -56 -44 12 15 18 7 20 12 -2 12 13 17 22 28 24 24 29 26 19 13 21 19 -1 4 20
11 12 10 6 6 13 38 43 36 17 6 8 16 18 11 8 20 25 24 84 18 33 14 40 -9 7 10 15 18 16 17 16 14 13 24 21 15 16 22 26 30 -2 18
9 8 7 7 28 46 35 9 7 9 13 15 17 11 10 2 17 24 32 36 -34 2 6 16 12 2 12 13 28 27 29 18 11 27 17 30 16 10 17 11 25 31 5
9 4 13 41 45 12 10 7 11 12 14 19 24 22 16 19 19 9 22 14 16 4 11 -2 4 9 14 -5 15 20 29 8 42 17 6 23 42 20 18 2 5 17 -4
4 24 49 24 10 9 5 16 17 19 11 9 12 14 8 6 -0 28 24 21 21 14 -1 8 13 4 6 5 13 41 13 21 25 32 36 22 24 26 6 18 56 20 -0
33 50 13 12 3 13 15 10 15 20 8 21 40 20 10 15 9 14 16 12 1 12 19 3 10 3 12 18 26 9 29 13 19 14 22 34 17 14 6 18 22 24 5
38 14 11 4 9 7 6 20 23 12 29 38 40 18 2 -3 -6 17 4 0 23 28 22 32 10 3 -7 3 7 2 19 11 27 9 10 27 27 30 27 11 2 29 16
12 7 8 5 15 11 12 34 17 23 18 25 16 14 11 11 27 17 8 3 8 -4 31 20 13 13 16 -6 16 -2 25 8 0 8 24 26 28 30 29 20 12 10 30
9 9 10 16 9 8 34 19 11 11 18 16 17 17 14 10 10 11 11 13 19 16 31 18 23 9 36 14 35 6 18 13 12 12 16 42 22 19 31 45 45 46 14
17 14 14 10 6 34 23 21 29 21 14 7 2 6 12 16 10 9 29 35 17 15 31 19 16 25 16 6 -1 29 21 20 6 3 16 26 40 20 12 12 10 9 10
10 14 15 8 19 20 17 11 13 12 19 14 2 15 11 6 10 21 21 30 19 13 29 17 11 27 13 5 5 14 23 0 24 25 22 2 9 12 26 31 26 23 22
2 6 15 11 19 7 6 13 12 9 10 17 13 13 14 10 19 24 18 34 28 5 20 17 9 23 14 20 1 12 10 17 4 4 4 -0 14 16 10 3 2 4 5
2 3 6 16 10 2 5 18 22 19 14 14 8 10 5 17 39 16 22 36 20 7 13 18 10 19 20 35 16 16 16 9 2 -0 13 6 15 14 12 11 9 7 6
4 5 3 12 11 11 8 10 6 6 3 3 7 14 11 9 31 19 21 28 18 5 13 16 16 17 37 -14 25 2 10 11 10 9 11 6 9 7 6 2 4 6 4
8 7 10 5 15 15 1 3 10 5 0 2 2 10 9 11 51 18 23 10 30 23 13 20 13 13 28 -20 19 3 3 10 6 6 4 4 4 7 3 2 -2 5 5
5 7 6 7 7 14 17 7 1 2 15 7 3 5 7 17 45 10 23 14 18 29 26 24 17 12 31 17 1 17 8 4 10 10 6 4 8 6 7 6 -2 3 10
8 7 7 8 9 8 9 18 16 11 3 12 6 4 7 18 44 7 19 15 15 13 24 15 11 12 6 -9 24 13 5 9 12 8 3 4 4 8 9 10 9 13 20
7 8 7 7 7 8 8 6 11 19 17 6 10 3 8 19 26 24 10 21 10 18 18 9 8 13 -2 24 25 2 14 2 5 5 7 5 7 11 6 5 20 18 11
4 5 5 6 6 6 8 7 6 9 17 13 8 7 9 14 32 18 27 6 20 16 14 19 19 32 -1 23 12 8 7 7 8 7 5 8 14 5 23 18 11 10 7
8 9 10 12 10 8 7 7 7 7 18 11 11 7 9 8 14 23 29 21 1 24 16 18 12 -14 18 5 14 12 9 8 5 5 2 11 17 18 14 14 11 9 9
19 19 21 21 23 24 21 12 6 7 10 17 12 10 7 10 5 10 25 38 20 14 21 18 10 25 8 4 7 6 4 8 11 -4 16 17 16 13 8 7 7 4 3
9 8 10 11 10 10 14 30 18 7 9 8 11 13 10 10 5 3 7 24 38 -0 14 -2 8 4 -1 9 16 13 12 1 4 22 19 15 8 5 6 6 3 2 2
10 8 6 7 8 10 15 10 29 16 6 9 11 14 13 6 11 3 2 5 13 29 32 19 8 4 9 0 11 17 20 20 19 14 9 6 6 7 5 3 2 3 3
9 10 10 9 9 10 11 13 14 27 12 7 6 15 14 11 10 10 3 2 5 8 11 16 19 22 19 15 14 14 15 14 11 7 6 6 6 5 4 4 4 4 6
Height
5683 5675 5667 5659 5651 5642 5633 5624 5619 5614 5604 5594 5585 5577 5573 5568 5566 5564 5560 5554 5550 5545 5544 5542 5545 5544 5548 5552 5552 5554 5556 5559 5562 5572 5572 5581 5588 5597 5603 5607 5613 5621 5628
5663 5655 5645 5635 5626 5618 5610 5600 5590 5584 5574 5565 5556 5550 5545 5545 5545 5539 5531 5524 5527 5527 5525 5525 5524 5524 5528 5530 5531 5531 5532 5536 5537 5545 5547 5550 5559 5573 5579 5586 5591 5597 5606
5642 5632 5624 5614 5604 5595 5583 5573 5563 5554 5548 5544 5538 5534 5530 5528 5525 5523 5512 5513 5514 5512 5511 5510 5509 5510 5513 5513 5514 5514 5514 5516 5519 5522 5525 5527 5533 5542 5555 5563 5569 5577 5584
5622 5613 5603 5593 5581 5568 5557 5550 5543 5539 5534 5531 5525 5520 5515 5511 5507 5503 5495 5496 5498 5498 5496 5496 5496 5497 5498 5498 5498 5497 5496 5496 5500 5502 5505 5506 5510 5521 5530 5539 5546 5558 5565
5603 5593 5582 5571 5558 5547 5539 5532 5527 5522 5517 5512 5508 5504 5500 5495 5490 5485 5480 5480 5479 5482 5482 5480 5481 5483 5483 5484 5483 5481 5480 5480 5480 5482 5484 5488 5491 5501 5512 5521 5527 5536 5541
5583 5572 5560 5549 5539 5532 5525 5518 5511 5504 5498 5493 5491 5486 5482 5478 5473 5469 5464 5461 5462 5465 5468 5469 5469 5472 5474 5475 5471 5467 5466 5465 5462 5463 5466 5468 5473 5484 5493 5499 5508 5516 5523
5562 5549 5539 5531 5525 5517 5510 5502 5493 5487 5481 5475 5470 5468 5465 5463 5459 5454 5449 5448 5450 5451 5453 5455 5458 5461 5463 5463 5459 5456 5454 5451 5449 5448 5449 5452 5458 5467 5478 5485 5490 5499 5505
5543 5533 5525 5518 5512 5504 5495 5486 5478 5471 5464 5457 5452 5450 5450 5449 5446 5442 5440 5436 5436 5437 5437 5441 5445 5449 5452 5452 5448 5444 5443 5442 5440 5439 5438 5441 5445 5451 5461 5468 5473 5480 5488
5527 5520 5513 5505 5498 5489 5480 5472 5463 5456 5449 5441 5438 5438 5437 5438 5433 5430 5428 5426 5425 5423 5424 5428 5433 5437 5441 5443 5438 5435 5434 5434 5432 5430 5431 5431 5434 5438 5444 5451 5458 5467 5472
5516 5509 5502 5494 5485 5477 5467 5459 5453 5446 5439 5434 5432 5429 5427 5426 5421 5418 5415 5414 5414 5412 5410 5414 5420 5423 5429 5433 5429 5428 5426 5428 5427 5425 5423 5422 5423 5427 5432 5438 5444 5452 5457
5505 5499 5492 5483 5474 5465 5456 5449 5444 5438 5433 5429 5426 5422 5418 5414 5411 5406 5402 5400 5400 5400 5399 5402 5407 5412 5418 5421 5421 5421 5421 5422 5422 5421 5419 5418 5419 5422 5426 5431 5436 5441 5446
5495 5489 5481 5473 5465 5455 5448 5441 5436 5432 5428 5424 5420 5416 5411 5405 5401 5396 5390 5386 5386 5387 5388 5391 5397 5402 5408 5412 5413 5415 5415 5417 5418 5417 5417 5417 5417 5420 5422 5427 5432 5438 5443
5487 5480 5472 5465 5457 5449 5443 5437 5432 5426 5422 5418 5413 5408 5404 5398 5392 5384 5378 5374 5375 5376 5378 5383 5388 5392 5398 5403 5407 5408 5411 5413 5414 5414 5416 5417 5420 5421 5422 5425 5429 5433 5437
5479 5472 5465 5458 5450 5444 5438 5432 5426 5420 5415 5410 5406 5401 5395 5389 5381 5374 5369 5364 5365 5368 5371 5375 5381 5385 5391 5396 5401 5403 5407 5410 5411 5413 5415 5418 5420 5421 5422 5426 5429 5433 5437
5470 5464 5457 5451 5445 5440 5433 5426 5420 5414 5409 5404 5399 5393 5387 5379 5370 5364 5361 5358 5359 5362 5365 5369 5374 5378 5385 5390 5395 5399 5403 5405 5408 5410 5413 5415 5418 5421 5422 5425 5428 5432 5435
5463 5457 5451 5445 5438 5433 5428 5422 5415 5410 5405 5399 5393 5386 5379 5371 5363 5357 5355 5353 5354 5356 5360 5364 5369 5373 5379 5384 5390 5394 5398 5400 5404 5407 5410 5413 5415 5418 5421 5424 5426 5429 5431
5454 5449 5444 5438 5432 5427 5421 5417 5412 5407 5400 5395 5388 5380 5372 5363 5354 5351 5350 5349 5349 5351 5355 5359 5364 5369 5374 5379 5385 5389 5393 5396 5399 5403 5407 5410 5412 5414 5417 5419 5421 5423 5425
5444 5440 5436 5430 5425 5419 5414 5409 5405 5400 5395 5390 5383 5376 5368 5359 5351 5349 5347 5347 5347 5348 5350 5353 5359 5365 5370 5376 5380 5384 5388 5392 5396 5399 5403 5406 5408 5409 5411 5413 5414 5415 5416
5434 5430 5426 5421 5416 5411 5406 5401 5396 5392 5388 5383 5378 5372 5365 5357 5350 5348 5346 5345 5346 5347 5348 5351 5356 5361 5367 5371 5376 5380 5384 5388 5392 5396 5398 5401 5402 5404 5405 5406 5407 5408 5409
5423 5419 5415 5411 5407 5403 5398 5393 5389 5385 5381 5377 5373 5368 5363 5356 5349 5346 5345 5343 5344 5345 5347 5350 5353 5358 5364 5368 5373 5377 5381 5384 5388 5391 5393 5396 5397 5398 5399 5400 5401 5403 5405
5410 5407 5403 5399 5396 5392 5389 5385 5381 5377 5374 5370 5367 5364 5360 5355 5349 5344 5342 5342 5341 5343 5345 5347 5351 5355 5360 5364 5368 5372 5376 5380 5383 5386 5388 5390 5392 5393 5394 5395 5397 5398 5399
5395 5391 5387 5384 5382 5379 5377 5375 5372 5369 5366 5363 5361 5359 5356 5353 5348 5343 5339 5339 5340 5341 5343 5346 5349 5352 5356 5361 5364 5368 5372 5375 5378 5381 5382 5384 5385 5386 5388 5390 5392 5393 5394
5379 5375 5372 5369 5366 5364 5362 5362 5361 5360 5358 5356 5354 5353 5351 5350 5347 5343 5338 5336 5338 5340 5342 5344 5348 5350 5353 5357 5360 5364 5367 5370 5373 5375 5376 5377 5378 5381 5383 5384 5385 5386 5386
5364 5361 5358 5356 5353 5351 5349 5348 5348 5349 5348 5348 5347 5346 5346 5345 5344 5342 5340 5337 5336 5338 5340 5343 5346 5348 5351 5353 5356 5359 5362 5364 5366 5368 5370 5372 5373 5374 5376 5377 5378 5377 5376
5350 5347 5344 5342 5340 5338 5337 5336 5335 5336 5337 5338 5338 5338 5338 5339 5339 5339 5338 5337 5336 5336 5337 5339 5341 5344 5347 5349 5351 5353 5355 5357 5360 5362 5364 5366 5368 5369 5370 5370 5370 5370 5369
5334 5332 5330 5328 5326 5325 5324 5324 5324 5323 5325 5327 5328 5329 5330 5331 5332 5334 5334 5334 5334 5335 5335 5336 5337 5339 5341 5343 5345 5348 5351 5353 5355 5357 5359 5361 5362 5362 5363 5364 5364 5363 5362